Location: Bergnerzell
(49.1816°N, 10.2565°E)
Time: 19:28:48
(UTC+00:00)

Cosmos 1295 Rocket - Pass Details

Date: 23 May 2024
Orbit: 943 x 993 km, 82.9° (Epoch: 24 June)

Event Time Altitude Azimuth Distance (km) Brightness Sun altitude
Exits shadow 02:32:33 - 189° (S) 3,440 6.9 -7.6°
Reaches altitude 10° 02:34:34 10° 190° (S) 2,676 6.3 -7.4°
Maximum altitude 02:40:41 84° 279° (W) 961 4.5 -6.7°
Drops below altitude 10° 02:46:49 10° 8° (N) 2,675 7.6 -5.9°
Sets 02:49:19 0° 10° (N) 3,623 8.4 -5.6°
